Location: Feydey
(46.3431°N, 7.0106°E)
Time: 23:28:32
(UTC+00:00)

Cosmos 1943 - Pass Details

Date: 20 June 2021
Orbit: 832 x 851 km, 71.0° (Epoch: 23 July)

Event Time Altitude Azimuth Distance (km) Brightness Sun altitude
Exits shadow 23:37:01 26° 134° (SE) 1,575 4.2 -20.2°
Maximum altitude 23:38:37 31° 104° (ESE) 1,436 4.3 -20.2°
Drops below altitude 10° 23:43:29 10° 44° (NE) 2,464 6.3 -20.2°
Sets 23:46:11 0° 35° (NE) 3,406 7.3 -20.2°
